| Data | Palazzo Cavalli Pressione | Palazzo Cavalli Temperatura | Palazzo Cavalli Umidita' | Palazzo Cavalli Radiazione solare | Palazzo Cavalli Pioggia 5m |
|---|---|---|---|---|---|
| 2026-05-03 02:20:00 | 1018.4 | 16.1 | 59 | 0 | 0.0 |
| 2026-05-03 02:25:00 | 1018.4 | 15.9 | 59 | 0 | 0.0 |
| 2026-05-03 02:30:00 | 1018.4 | 16.1 | 60 | 0 | 0.0 |
| 2026-05-03 02:35:00 | 1018.4 | 16.4 | 60 | 0 | 0.0 |
| 2026-05-03 02:40:00 | 1018.4 | 16.3 | 59 | 0 | 0.0 |
| 2026-05-03 02:45:00 | 1018.4 | 16.3 | 59 | 0 | 0.0 |
| 2026-05-03 02:50:00 | 1018.4 | 16.2 | 58 | 0 | 0.0 |
| 2026-05-03 02:55:00 | 1018.4 | 16.1 | 60 | 0 | 0.0 |
| 2026-05-03 03:00:00 | 1018.4 | 16.0 | 62 | 0 | 0.0 |
| 2026-05-03 03:05:00 | 1018.4 | 16.0 | 61 | 0 | 0.0 |
| 2026-05-03 03:10:00 | 1018.3 | 15.9 | 62 | 0 | 0.0 |
| 2026-05-03 03:15:00 | 1018.3 | 15.7 | 64 | 0 | 0.0 |
| 2026-05-03 03:20:00 | 1018.3 | 15.6 | 65 | 0 | 0.0 |
| 2026-05-03 03:25:00 | 1018.3 | 15.5 | 65 | 0 | 0.0 |
| 2026-05-03 03:30:00 | 1018.3 | 15.5 | 66 | 0 | 0.0 |
| 2026-05-03 03:35:00 | 1018.2 | 15.5 | 66 | 0 | 0.0 |
| 2026-05-03 03:40:00 | 1018.2 | 15.4 | 67 | 0 | 0.0 |
| 2026-05-03 03:45:00 | 1018.2 | 15.7 | 67 | 0 | 0.0 |
| 2026-05-03 03:50:00 | 1018.2 | 15.8 | 68 | 0.0 | |
| 2026-05-03 03:55:00 | 1018.2 | 15.7 | 69 | 0.0 | |
| 2026-05-03 04:00:00 | 1018.2 | 15.5 | 69 | 0 | 0.0 |
| 2026-05-03 04:05:00 | 1018.2 | 15.4 | 70 | 0 | 0.0 |
| 2026-05-03 04:10:00 | 1018.2 | 15.2 | 71 | 0 | 0.0 |
| 2026-05-03 04:15:00 | 1018.2 | 15.3 | 72 | 0 | 0.0 |
| 2026-05-03 04:20:00 | 1018.1 | 15.1 | 73 | 0 | 0.0 |
| 2026-05-03 04:25:00 | 1018.1 | 14.9 | 74 | 0 | 0.0 |
| 2026-05-03 04:30:00 | 1018.0 | 14.8 | 75 | 0 | 0.0 |
| 2026-05-03 04:35:00 | 1018.0 | 14.7 | 76 | 0 | 0.0 |
| 2026-05-03 04:40:00 | 1018.0 | 14.6 | 76 | 0 | 0.0 |
| 2026-05-03 04:45:00 | 1018.0 | 14.6 | 76 | 2 | 0.0 |
| 2026-05-03 04:50:00 | 1018.0 | 14.5 | 77 | 3 | 0.0 |
| 2026-05-03 04:55:00 | 1018.0 | 14.5 | 77 | 4 | 0.0 |
| 2026-05-03 05:00:00 | 1018.1 | 14.5 | 78 | 5 | 0.0 |
| 2026-05-03 05:05:00 | 1018.1 | 14.5 | 78 | 8 | 0.0 |
| 2026-05-03 05:10:00 | 1018.1 | 14.5 | 78 | 11 | 0.0 |
| 2026-05-03 05:15:00 | 1018.1 | 14.5 | 79 | 15 | 0.0 |
| 2026-05-03 05:20:00 | 1018.1 | 14.5 | 79 | 19 | 0.0 |
| 2026-05-03 05:25:00 | 1018.2 | 14.6 | 80 | 21 | 0.0 |
| 2026-05-03 05:30:00 | 1018.1 | 14.5 | 80 | 27 | 0.0 |
| 2026-05-03 05:35:00 | 1018.2 | 14.6 | 80 | 29 | 0.0 |
| 2026-05-03 05:40:00 | 1018.1 | 14.6 | 81 | 29 | 0.0 |
| 2026-05-03 05:45:00 | 1018.1 | 14.6 | 81 | 32 | 0.0 |
| 2026-05-03 05:50:00 | 1018.2 | 14.6 | 81 | 36 | 0.0 |
| 2026-05-03 05:55:00 | 1018.2 | 14.6 | 81 | 40 | 0.0 |
| 2026-05-03 06:00:00 | 1018.2 | 14.5 | 81 | 44 | 0.0 |
| 2026-05-03 06:05:00 | 1018.2 | 14.5 | 81 | 48 | 0.0 |
| 2026-05-03 06:10:00 | 1018.2 | 14.5 | 80 | 50 | 0.0 |
| 2026-05-03 06:15:00 | 1018.2 | 14.5 | 80 | 52 | 0.0 |
| 2026-05-03 06:20:00 | 1018.2 | 14.5 | 79 | 54 | 0.0 |
| 2026-05-03 06:25:00 | 1018.1 | 14.6 | 79 | 57 | 0.0 |
| 2026-05-03 06:30:00 | 1018.1 | 14.6 | 79 | 121 | 0.0 |
| 2026-05-03 06:35:00 | 1018.1 | 14.8 | 79 | 203 | 0.0 |
| 2026-05-03 06:40:00 | 1018.1 | 15.3 | 79 | 217 | 0.0 |
| 2026-05-03 06:45:00 | 1018.2 | 15.4 | 78 | 249 | 0.0 |
| 2026-05-03 06:50:00 | 1018.2 | 15.8 | 77 | 274 | 0.0 |
| 2026-05-03 06:55:00 | 1018.2 | 16.1 | 76 | 304 | 0.0 |
| 2026-05-03 07:00:00 | 1018.2 | 16.6 | 75 | 319 | 0.0 |
| 2026-05-03 07:05:00 | 1018.2 | 17.1 | 73 | 334 | 0.0 |
| 2026-05-03 07:10:00 | 1018.2 | 17.0 | 71 | 322 | 0.0 |
| 2026-05-03 07:15:00 | 1018.2 | 17.2 | 71 | 353 | 0.0 |
| 2026-05-03 07:20:00 | 1018.2 | 17.4 | 70 | 394 | 0.0 |
| 2026-05-03 07:25:00 | 1018.2 | 17.8 | 69 | 404 | 0.0 |
| 2026-05-03 07:30:00 | 1018.2 | 17.8 | 68 | 393 | 0.0 |
| 2026-05-03 07:35:00 | 1018.3 | 17.9 | 67 | 436 | 0.0 |
| 2026-05-03 07:40:00 | 1018.3 | 18.2 | 66 | 424 | 0.0 |
| 2026-05-03 07:45:00 | 1018.3 | 18.3 | 65 | 443 | 0.0 |
| 2026-05-03 07:50:00 | 1018.4 | 18.5 | 65 | 430 | 0.0 |
| 2026-05-03 07:55:00 | 1018.4 | 18.8 | 64 | 455 | 0.0 |
| 2026-05-03 08:00:00 | 1018.4 | 18.9 | 64 | 425 | 0.0 |
| 2026-05-03 08:05:00 | 1018.4 | 19.3 | 64 | 496 | 0.0 |
| 2026-05-03 08:10:00 | 1018.4 | 19.5 | 64 | 534 | 0.0 |
| 2026-05-03 08:15:00 | 1018.4 | 19.5 | 63 | 538 | 0.0 |
| 2026-05-03 08:20:00 | 1018.4 | 19.5 | 62 | 551 | 0.0 |
| 2026-05-03 08:25:00 | 1018.4 | 20.0 | 62 | 566 | 0.0 |
| 2026-05-03 08:30:00 | 1018.4 | 19.8 | 60 | 587 | 0.0 |
| 2026-05-03 08:35:00 | 1018.4 | 20.2 | 59 | 590 | 0.0 |
| 2026-05-03 08:40:00 | 1018.4 | 20.5 | 58 | 588 | 0.0 |
| 2026-05-03 08:45:00 | 1018.5 | 20.5 | 57 | 620 | 0.0 |
| 2026-05-03 08:50:00 | 1018.5 | 20.2 | 56 | 650 | 0.0 |
| 2026-05-03 08:55:00 | 1018.5 | 20.7 | 55 | 643 | 0.0 |
| 2026-05-03 09:00:00 | 1018.5 | 20.7 | 55 | 630 | 0.0 |
| 2026-05-03 09:05:00 | 1018.4 | 20.6 | 55 | 672 | 0.0 |
| 2026-05-03 09:10:00 | 1018.3 | 20.8 | 54 | 683 | 0.0 |
| 2026-05-03 09:15:00 | 1018.4 | 21.1 | 51 | 695 | 0.0 |
| 2026-05-03 09:20:00 | 1018.3 | 21.2 | 51 | 708 | 0.0 |
| 2026-05-03 09:25:00 | 1018.3 | 21.6 | 47 | 723 | 0.0 |
| 2026-05-03 09:30:00 | 1018.2 | 22.0 | 47 | 765 | 0.0 |
| 2026-05-03 09:35:00 | 1018.2 | 21.9 | 47 | 771 | 0.0 |
| 2026-05-03 09:40:00 | 1018.3 | 21.7 | 48 | 700 | 0.0 |
| 2026-05-03 09:45:00 | 1018.3 | 21.0 | 50 | 774 | 0.0 |
| 2026-05-03 09:50:00 | 1018.2 | 21.1 | 46 | 836 | 0.0 |
| 2026-05-03 09:55:00 | 1018.2 | 20.7 | 49 | 846 | 0.0 |
| 2026-05-03 10:00:00 | 1018.2 | 20.4 | 54 | 857 | 0.0 |
| 2026-05-03 10:05:00 | 1018.2 | 20.2 | 58 | 854 | 0.0 |
| 2026-05-03 10:10:00 | 1018.3 | 20.0 | 61 | 848 | 0.0 |
| 2026-05-03 10:15:00 | 1018.3 | 20.0 | 62 | 862 | 0.0 |
| 2026-05-03 10:20:00 | 1018.2 | 20.2 | 63 | 864 | 0.0 |
| 2026-05-03 10:25:00 | 1018.2 | 20.0 | 63 | 881 | 0.0 |
| 2026-05-03 10:30:00 | 1018.2 | 20.1 | 63 | 895 | 0.0 |
| 2026-05-03 10:35:00 | 1018.3 | 20.2 | 62 | 901 | 0.0 |
| 2026-05-03 10:40:00 | 1018.2 | 20.2 | 60 | 905 | 0.0 |
| 2026-05-03 10:45:00 | 1018.2 | 19.6 | 60 | 917 | 0.0 |
| 2026-05-03 10:50:00 | 1018.2 | 19.6 | 61 | 924 | 0.0 |
| 2026-05-03 10:55:00 | 1018.2 | 20.3 | 60 | 927 | 0.0 |
| 2026-05-03 11:00:00 | 1018.1 | 20.7 | 59 | 933 | 0.0 |
| 2026-05-03 11:05:00 | 1018.1 | 20.8 | 58 | 941 | 0.0 |
| 2026-05-03 11:10:00 | 1018.0 | 21.0 | 57 | 941 | 0.0 |
| 2026-05-03 11:15:00 | 1018.0 | 20.8 | 58 | 944 | 0.0 |
| 2026-05-03 11:20:00 | 1017.9 | 21.0 | 56 | 949 | 0.0 |
| 2026-05-03 11:25:00 | 1017.9 | 21.3 | 55 | 955 | 0.0 |
| 2026-05-03 11:30:00 | 1017.9 | 20.8 | 55 | 960 | 0.0 |
| 2026-05-03 11:35:00 | 1017.9 | 20.5 | 55 | 968 | 0.0 |
| 2026-05-03 11:40:00 | 1017.8 | 21.2 | 55 | 967 | 0.0 |
| 2026-05-03 11:45:00 | 1017.8 | 21.1 | 53 | 971 | 0.0 |
| 2026-05-03 11:50:00 | 1017.7 | 21.1 | 52 | 970 | 0.0 |
| 2026-05-03 11:55:00 | 1017.7 | 21.5 | 54 | 969 | 0.0 |
| 2026-05-03 12:00:00 | 1017.6 | 21.6 | 51 | 970 | 0.0 |
| 2026-05-03 12:05:00 | 1017.6 | 21.0 | 50 | 981 | 0.0 |
| 2026-05-03 12:10:00 | 1017.7 | 20.9 | 53 | 978 | 0.0 |
| 2026-05-03 12:15:00 | 1017.6 | 21.5 | 52 | 969 | 0.0 |
| 2026-05-03 12:20:00 | 1017.6 | 21.8 | 51 | 965 | 0.0 |
| 2026-05-03 12:25:00 | 1017.6 | 21.0 | 53 | 968 | 0.0 |
| 2026-05-03 12:30:00 | 1017.6 | 21.6 | 53 | 971 | 0.0 |
| 2026-05-03 12:35:00 | 1017.5 | 21.4 | 53 | 970 | 0.0 |
| 2026-05-03 12:40:00 | 1017.4 | 21.0 | 50 | 953 | 0.0 |
| 2026-05-03 12:45:00 | 1017.5 | 21.3 | 51 | 941 | 0.0 |
| 2026-05-03 12:50:00 | 1017.5 | 21.6 | 48 | 939 | 0.0 |
| 2026-05-03 12:55:00 | 1017.4 | 21.4 | 47 | 957 | 0.0 |
| 2026-05-03 13:00:00 | 1017.5 | 21.2 | 48 | 941 | 0.0 |
| 2026-05-03 13:05:00 | 1017.5 | 21.8 | 47 | 939 | 0.0 |
| 2026-05-03 13:10:00 | 1017.4 | 21.9 | 46 | 935 | 0.0 |
| 2026-05-03 13:15:00 | 1017.4 | 21.6 | 47 | 936 | 0.0 |
| 2026-05-03 13:20:00 | 1017.4 | 22.2 | 46 | 932 | 0.0 |
| 2026-05-03 13:25:00 | 1017.3 | 22.3 | 47 | 925 | 0.0 |
| 2026-05-03 13:30:00 | 1017.3 | 21.6 | 46 | 890 | 0.0 |
| 2026-05-03 13:35:00 | 1017.2 | 22.0 | 46 | 806 | 0.0 |
| 2026-05-03 13:40:00 | 1017.2 | 22.2 | 45 | 611 | 0.0 |
| 2026-05-03 13:45:00 | 1017.2 | 22.2 | 45 | 581 | 0.0 |
| 2026-05-03 13:50:00 | 1017.2 | 22.1 | 45 | 923 | 0.0 |
| 2026-05-03 13:55:00 | 1017.1 | 22.4 | 46 | 894 | 0.0 |
| 2026-05-03 14:00:00 | 1017.1 | 22.4 | 46 | 868 | 0.0 |
| 2026-05-03 14:05:00 | 1017.0 | 22.3 | 44 | 847 | 0.0 |
| 2026-05-03 14:10:00 | 1017.0 | 22.3 | 42 | 833 | 0.0 |
| 2026-05-03 14:15:00 | 1017.0 | 22.0 | 42 | 822 | 0.0 |
| 2026-05-03 14:20:00 | 1016.9 | 22.4 | 41 | 811 | 0.0 |
| 2026-05-03 14:25:00 | 1016.8 | 22.5 | 41 | 794 | 0.0 |
| 2026-05-03 14:30:00 | 1016.8 | 22.6 | 40 | 554 | 0.0 |
| 2026-05-03 14:35:00 | 1016.7 | 22.2 | 41 | 611 | 0.0 |
| 2026-05-03 14:40:00 | 1016.6 | 22.5 | 42 | 620 | 0.0 |
| 2026-05-03 14:45:00 | 1016.7 | 22.1 | 40 | 613 | 0.0 |
| 2026-05-03 14:50:00 | 1016.6 | 22.0 | 42 | 652 | 0.0 |
| 2026-05-03 14:55:00 | 1016.5 | 22.3 | 45 | 628 | 0.0 |
| 2026-05-03 15:00:00 | 1016.5 | 22.1 | 46 | 559 | 0.0 |
| 2026-05-03 15:05:00 | 1016.4 | 22.2 | 46 | 634 | 0.0 |
| 2026-05-03 15:10:00 | 1016.4 | 21.7 | 46 | 500 | 0.0 |
| 2026-05-03 15:15:00 | 1016.4 | 21.9 | 46 | 357 | 0.0 |
| 2026-05-03 15:20:00 | 1016.4 | 21.9 | 47 | 651 | 0.0 |
| 2026-05-03 15:25:00 | 1016.3 | 21.7 | 46 | 645 | 0.0 |
| 2026-05-03 15:30:00 | 1016.3 | 21.7 | 49 | 624 | 0.0 |
| 2026-05-03 15:35:00 | 1016.3 | 21.4 | 49 | 600 | 0.0 |
| 2026-05-03 15:40:00 | 1016.2 | 21.4 | 50 | 589 | 0.0 |
| 2026-05-03 15:45:00 | 1016.2 | 21.6 | 48 | 570 | 0.0 |
| 2026-05-03 15:50:00 | 1016.1 | 21.4 | 49 | 518 | 0.0 |
| 2026-05-03 15:55:00 | 1016.0 | 22.0 | 50 | 403 | 0.0 |
| 2026-05-03 16:00:00 | 1016.0 | 21.4 | 49 | 300 | 0.0 |
| 2026-05-03 16:05:00 | 1016.0 | 21.1 | 51 | 328 | 0.0 |
| 2026-05-03 16:10:00 | 1016.0 | 21.3 | 52 | 296 | 0.0 |
| 2026-05-03 16:15:00 | 1016.1 | 21.1 | 52 | 271 | 0.0 |
| 2026-05-03 16:20:00 | 1016.0 | 20.8 | 54 | 247 | 0.0 |
| 2026-05-03 16:25:00 | 1016.0 | 20.6 | 55 | 284 | 0.0 |
| 2026-05-03 16:30:00 | 1015.9 | 20.7 | 56 | 284 | 0.0 |
| 2026-05-03 16:35:00 | 1015.8 | 20.5 | 55 | 286 | 0.0 |
| 2026-05-03 16:40:00 | 1015.8 | 20.6 | 54 | 285 | 0.0 |
| 2026-05-03 16:45:00 | 1015.7 | 20.5 | 53 | 227 | 0.0 |
| 2026-05-03 16:50:00 | 1015.7 | 20.5 | 52 | 222 | 0.0 |
| 2026-05-03 16:55:00 | 1015.7 | 20.5 | 52 | 195 | 0.0 |
| 2026-05-03 17:00:00 | 1015.7 | 20.4 | 51 | 185 | 0.0 |
| 2026-05-03 17:05:00 | 1015.7 | 20.4 | 51 | 174 | 0.0 |
| 2026-05-03 17:10:00 | 1015.6 | 20.4 | 52 | 172 | 0.0 |
| 2026-05-03 17:15:00 | 1015.6 | 20.2 | 52 | 171 | 0.0 |
| 2026-05-03 17:20:00 | 1015.6 | 20.3 | 53 | 167 | 0.0 |
| 2026-05-03 17:25:00 | 1015.5 | 20.1 | 55 | 168 | 0.0 |
| 2026-05-03 17:30:00 | 1015.5 | 20.2 | 55 | 219 | 0.0 |
| 2026-05-03 17:35:00 | 1015.5 | 20.3 | 55 | 177 | 0.0 |
| 2026-05-03 17:40:00 | 1015.5 | 20.0 | 56 | 185 | 0.0 |
| 2026-05-03 17:45:00 | 1015.4 | 20.0 | 57 | 155 | 0.0 |
| 2026-05-03 17:50:00 | 1015.4 | 20.1 | 58 | 137 | 0.0 |
| 2026-05-03 17:55:00 | 1015.3 | 20.0 | 57 | 143 | 0.0 |
| 2026-05-03 18:00:00 | 1015.3 | 20.0 | 56 | 119 | 0.0 |
| 2026-05-03 18:05:00 | 1015.3 | 19.9 | 58 | 93 | 0.0 |
| 2026-05-03 18:10:00 | 1015.2 | 19.8 | 57 | 77 | 0.0 |
| 2026-05-03 18:15:00 | 1015.1 | 19.9 | 57 | 63 | 0.0 |
| 2026-05-03 18:20:00 | 1015.1 | 19.7 | 57 | 53 | 0.0 |
| 2026-05-03 18:25:00 | 1015.0 | 19.7 | 56 | 47 | 0.0 |
| 2026-05-03 18:30:00 | 1015.0 | 19.6 | 57 | 43 | 0.0 |
| 2026-05-03 18:35:00 | 1015.0 | 19.5 | 57 | 40 | 0.0 |
| 2026-05-03 18:40:00 | 1015.1 | 19.5 | 58 | 36 | 0.0 |
| 2026-05-03 18:45:00 | 1015.1 | 19.4 | 59 | 31 | 0.0 |
| 2026-05-03 18:50:00 | 1015.1 | 19.4 | 58 | 25 | 0.0 |
| 2026-05-03 18:55:00 | 1015.1 | 19.4 | 58 | 21 | 0.0 |
| 2026-05-03 19:00:00 | 1015.1 | 19.3 | 60 | 15 | 0.0 |
| 2026-05-03 19:05:00 | 1015.2 | 19.3 | 60 | 11 | 0.0 |
| 2026-05-03 19:10:00 | 1015.3 | 19.3 | 60 | 7 | 0.0 |
| 2026-05-03 19:15:00 | 1015.3 | 19.3 | 60 | 3 | 0.0 |
| 2026-05-03 19:20:00 | 1015.2 | 19.2 | 61 | 1 | 0.0 |
| 2026-05-03 19:25:00 | 1015.3 | 19.2 | 61 | 0 | 0.0 |
| 2026-05-03 19:30:00 | 1015.3 | 19.1 | 61 | 0 | 0.0 |
| 2026-05-03 19:35:00 | 1015.3 | 19.1 | 61 | 0 | 0.0 |
| 2026-05-03 19:40:00 | 1015.3 | 19.1 | 61 | 0 | 0.0 |
| 2026-05-03 19:45:00 | 1015.3 | 19.0 | 62 | 0 | 0.0 |
| 2026-05-03 19:50:00 | 1015.3 | 19.1 | 61 | 0 | 0.0 |
| 2026-05-03 19:55:00 | 1015.4 | 19.1 | 62 | 0 | 0.0 |
| 2026-05-03 20:00:00 | 1015.4 | 19.1 | 60 | 0 | 0.0 |
| 2026-05-03 20:05:00 | 1015.4 | 19.0 | 61 | 0 | 0.0 |
| 2026-05-03 20:10:00 | 1015.5 | 19.0 | 61 | 0.0 | |
| 2026-05-03 20:15:00 | 1015.5 | 19.0 | 62 | 0 | 0.0 |
| 2026-05-03 20:20:00 | 1015.5 | 19.0 | 62 | 0 | 0.0 |
| 2026-05-03 20:25:00 | 1015.6 | 19.0 | 63 | 0 | 0.0 |
| 2026-05-03 20:30:00 | 1015.7 | 19.0 | 63 | 0 | 0.0 |
| 2026-05-03 20:35:00 | 1015.7 | 19.0 | 63 | 0 | 0.0 |
| 2026-05-03 20:40:00 | 1015.7 | 19.0 | 64 | 0 | 0.0 |
| 2026-05-03 20:45:00 | 1015.7 | 19.0 | 65 | 0 | 0.0 |
| 2026-05-03 20:50:00 | 1015.6 | 19.0 | 66 | 0 | 0.0 |
| 2026-05-03 20:55:00 | 1015.6 | 19.0 | 67 | 0 | 0.0 |
| 2026-05-03 21:00:00 | 1015.6 | 19.0 | 67 | 0 | 0.0 |
| 2026-05-03 21:05:00 | 1015.6 | 18.9 | 67 | 0 | 0.0 |
| 2026-05-03 21:10:00 | 1015.6 | 18.9 | 66 | 0.0 | |
| 2026-05-03 21:15:00 | 1015.6 | 18.9 | 67 | 0 | 0.0 |
| 2026-05-03 21:20:00 | 1015.5 | 18.9 | 69 | 0 | 0.0 |
| 2026-05-03 21:25:00 | 1015.5 | 18.8 | 69 | 0 | 0.0 |
| 2026-05-03 21:30:00 | 1015.4 | 18.8 | 70 | 0 | 0.0 |
| 2026-05-03 21:35:00 | 1015.5 | 18.7 | 69 | 0 | 0.0 |
| 2026-05-03 21:40:00 | 1015.5 | 18.7 | 69 | 0 | 0.0 |
| 2026-05-03 21:45:00 | 1015.7 | 18.6 | 70 | 0 | 0.0 |
| 2026-05-03 21:50:00 | 1015.8 | 18.7 | 69 | 0 | 0.0 |
| 2026-05-03 21:55:00 | 1015.8 | 18.6 | 68 | 0 | 0.0 |
| 2026-05-03 22:00:00 | 1015.8 | 18.5 | 67 | 0 | 0.0 |
| 2026-05-03 22:05:00 | 1015.8 | 18.4 | 68 | 0 | 0.0 |
| 2026-05-03 22:10:00 | 1015.9 | 18.6 | 67 | 0 | 0.0 |
| 2026-05-03 22:15:00 | 1015.9 | 18.5 | 67 | 0 | 0.0 |
| 2026-05-03 22:20:00 | 1016.0 | 18.3 | 68 | 0 | 0.0 |
| 2026-05-03 22:25:00 | 1015.9 | 18.4 | 68 | 0 | 0.0 |
| 2026-05-03 22:30:00 | 1016.0 | 18.3 | 68 | 0 | 0.0 |
| 2026-05-03 22:35:00 | 1016.0 | 18.2 | 69 | 0 | 0.0 |
| 2026-05-03 22:40:00 | 1015.9 | 18.2 | 70 | 0 | 0.0 |
| 2026-05-03 22:45:00 | 1016.0 | 18.2 | 69 | 0 | 0.0 |
| 2026-05-03 22:50:00 | 1016.0 | 18.1 | 69 | 0 | 0.0 |
| 2026-05-03 22:55:00 | 1016.1 | 18.1 | 70 | 0 | 0.0 |
| 2026-05-03 23:00:00 | 1016.1 | 18.1 | 70 | 0.0 | |
| 2026-05-03 23:05:00 | 1016.2 | 18.0 | 71 | 0 | 0.0 |
| 2026-05-03 23:10:00 | 1016.2 | 18.0 | 72 | 0 | 0.0 |
| 2026-05-03 23:15:00 | 1016.2 | 17.9 | 72 | 0 | 0.0 |
| 2026-05-03 23:20:00 | 1016.3 | 18.0 | 71 | 0 | 0.0 |
| 2026-05-03 23:25:00 | 1016.2 | 17.9 | 71 | 0 | 0.0 |
| 2026-05-03 23:30:00 | 1016.2 | 17.8 | 70 | 0 | 0.0 |
| 2026-05-03 23:35:00 | 1016.3 | 17.9 | 70 | 0 | 0.0 |
| 2026-05-03 23:40:00 | 1016.2 | 17.8 | 70 | 0 | 0.0 |
| 2026-05-03 23:45:00 | 1016.1 | 17.8 | 68 | 0 | 0.0 |
| 2026-05-03 23:50:00 | 1016.2 | 17.8 | 69 | 0 | 0.0 |
| 2026-05-03 23:55:00 | 1016.2 | 17.8 | 69 | 0 | 0.0 |
| 2026-05-04 00:00:00 | 1016.2 | 17.8 | 70 | 0 | 0.0 |
| 2026-05-04 00:05:00 | 1016.2 | 17.8 | 70 | 0 | 0.0 |
| 2026-05-04 00:10:00 | 1016.1 | 17.7 | 70 | 0 | 0.0 |
| 2026-05-04 00:15:00 | 1016.1 | 17.7 | 70 | 0 | 0.0 |
| 2026-05-04 00:20:00 | 1016.2 | 17.7 | 71 | 0 | 0.0 |
| 2026-05-04 00:25:00 | 1016.1 | 17.7 | 71 | 0 | 0.0 |
| 2026-05-04 00:30:00 | 1016.1 | 17.7 | 71 | 0 | 0.0 |
| 2026-05-04 00:35:00 | 1016.0 | 17.8 | 73 | 0.0 | |
| 2026-05-04 00:40:00 | 1016.0 | 17.7 | 73 | 0 | 0.0 |
| 2026-05-04 00:45:00 | 1016.0 | 17.6 | 72 | 0 | 0.0 |
| 2026-05-04 00:50:00 | 1015.9 | 17.6 | 71 | 0 | 0.0 |
| 2026-05-04 00:55:00 | 1015.9 | 17.7 | 71 | 0 | 0.0 |
| 2026-05-04 01:00:00 | 1015.9 | 17.6 | 70 | 0 | 0.0 |
| 2026-05-04 01:05:00 | 1015.8 | 17.6 | 69 | 0 | 0.0 |
| 2026-05-04 01:10:00 | 1015.8 | 17.6 | 70 | 0 | 0.0 |
| 2026-05-04 01:15:00 | 1015.8 | 17.7 | 69 | 0 | 0.0 |
| 2026-05-04 01:20:00 | 1015.8 | 17.6 | 69 | 0 | 0.0 |
| 2026-05-04 01:25:00 | 1015.8 | 17.7 | 68 | 0 | 0.0 |
| 2026-05-04 01:30:00 | 1015.7 | 17.6 | 67 | 0 | 0.0 |
| 2026-05-04 01:35:00 | 1015.6 | 17.7 | 67 | 0 | 0.0 |
| 2026-05-04 01:40:00 | 1015.6 | 17.6 | 68 | 0 | 0.0 |
| 2026-05-04 01:45:00 | 1015.6 | 17.7 | 68 | 0 | 0.0 |
| 2026-05-04 01:50:00 | 1015.6 | 17.6 | 68 | 0 | 0.0 |
| 2026-05-04 01:55:00 | 1015.6 | 17.6 | 69 | 0 | 0.0 |
| 2026-05-04 02:00:00 | 1015.5 | 17.6 | 70 | 0 | 0.0 |
| 2026-05-04 02:05:00 | 1015.5 | 17.5 | 71 | 0 | 0.0 |
| 2026-05-04 02:10:00 | 1015.5 | 17.6 | 72 | 0 | 0.0 |
| 2026-05-04 02:15:00 | 1015.5 | 17.5 | 73 | 0 | 0.0 |